Location: St. Louis
(38.6270°N, 90.1994°W)
Time: 14:24:07
(UTC-05:00)

ISS - Pass Details

Date: 10 July 2018
Orbit: 419 x 421 km, 51.6° (Epoch: 31 July)

Event Time Altitude Azimuth Distance (km) Brightness Sun altitude
Rises 03:31:33 0° 314° (NW) 2,368 0.2 -20.3°
Reaches altitude 10° 03:33:47 10° 324° (NW) 1,500 -0.8 -20.0°
Maximum altitude 03:36:53 34° 32° (NNE) 709 -2.0 -19.7°
Drops below altitude 10° 03:40:00 10° 99° (E) 1,502 -0.6 -19.3°
Sets 03:42:13 0° 109° (ESE) 2,371 0.3 -19.0°
